SCP
0 0 0 0 0 0 0 0 0 0 0 0 0 0 0 0 0 0 0 0 0 0 0 0 0 0 0 0 0 0 0 0 0 0 0 0 0 0 0 0 0 0 0 0
0 0 0 0 0 0 0 0 0 0 0 0 0 0 0 0 0 0 0 0 0 0 0 0 0 0 0 0 0 0 0 0 0 0 0 0 0 0 0 0 0 0 0 0
0 0 0 0 0 0 0 0 0 0 0 0 0 0 0 0 0 0 0 0 0 0 0 0 0 0 0 0 0 0 0 0 0 0 0 0 0 0 0 0 0 0 0 0
0 0 0 0 0 0 0 0 0 0 0 0 0 0 0 0 0 0 0 0 0 0 0 0 0 0 0 0 0 0 0 0 0 0 0 0 0 0 0 0 0 0 0 0
0 0 0 0 0 0 0 0 0 0 0 0 0 0 0 0 0 0 0 0 0 0 0 0 0 0 0 0 0 0 0 0 0 0 0 0 0 0 0 0 0 0 0 0
0 0 0 0 0 0 0 0 0 0 0 0 0 0 0 0 0 0 0 0 0 0 0 0 0 0 0 0 0 0 0 0 0 0 0 0 0 0 0 0 0 0 0 0
0 0 0 0 0 0 0 0 0 0 0 0 0 0 0 0 0 0 0 0 0 0 0 0 0 0 0 0 0 0 0 0 0 0 0 0 0 0 0 0 0 0 0 0
0 0 0 0 0 0 0 0 0 0 0 0 0 0 0 0 0 0 0 0 0 0 0 0 0 0 0 0 0 0 0 0 0 0 0 0 0 0 0 0 0 0 0 0
0 0 0 0 0 0 0 0 0 0 0 0 0 0 0 0 0 0 0 0 0 0 0 0 0 0 0 0 0 0 0 0 0 0 0 0 0 0 0 0 0 0 0 0
0 0 0 0 0 0 0 0 0 0 0 0 0 0 0 0 0 0 0 0 0 0 0 0 0 0 0 0 0 0 0 0 0 0 0 0 0 0 0 0 0 0 0 0
0 0 0 0 0 0 0 0 0 0 0 0 0 0 0 0 0 0 0 0 0 0 0 0 0 0 0 0 0 0 0 0 0 0 0 0 0 0 0 0 0 0 0 0
0 0 0 0 0 0 0 0 0 0 0 0 0 0 0 0 0 0 0 0 0 0 0 0 0 0 0 0 0 0 0 0 0 0 0 0 0 0 0 0 0 0 0 0
0 0 0 0 0 0 0 0 0 0 0 0 0 0 0 0 0 0 0 0 0 0 0 0 0 0 0 0 0 0 0 0 0 0 0 0 0 0 0 0 0 0 0 0
0 0 0 0 0 0 0 0 0 0 0 0 0 0 0 0 0 0 0 0 0 0 0 0 0 0 0 0 0 0 0 0 0 0 0 0 0 0 0 0 0 0 0 0
0 0 0 0 0 0 0 0 0 0 0 0 0 0 0 0 0 0 0 0 0 0 0 0 0 0 0 0 0 0 0 0 0 0 0 0 0 0 0 0 0 0 0 0
0 0 0 0 0 0 0 0 0 0 0 0 0 0 0 0 0 0 0 0 0 0 0 0 0 0 0 0 0 0 0 0 0 0 0 0 0 0 0 0 0 0 0 0
0 0 0 0 0 0 0 0 0 0 0 0 0 0 0 0 0 0 0 0 0 0 0 0 0 0 0 0 0 0 0 0 0 0 0 0 0 0 0 0 0 0 0 0
0 0 0 0 0 0 0 0 0 0 0 0 0 0 0 0 0 0 0 0 0 0 0 0 0 0 0 0 0 0 0 0 0 0 0 0 0 0 0 0 0 0 0 0
0 0 0 0 0 0 0 0 0 0 0 0 0 0 0 0 0 0 0 0 0 0 0 0 0 0 0 0 0 0 0 0 0 0 0 0 0 0 0 0 0 0 0 0
0 0 0 0 0 0 0 0 0 0 0 0 0 0 0 0 0 0 0 0 0 0 0 0 0 0 0 0 0 0 0 0 0 0 0 0 0 0 0 0 0 0 0 0
0 0 0 0 0 0 0 0 0 0 0 0 0 0 0 0 0 0 0 0 0 0 0 0 0 0 0 0 0 0 0 0 0 0 0 0 0 0 0 0 0 0 0 0
0 0 0 0 0 0 0 0 0 0 0 0 0 0 0 0 0 0 0 0 0 0 0 0 0 0 0 0 0 0 0 0 0 0 0 0 0 0 0 0 0 0 0 0
0 0 0 0 0 0 0 0 0 0 0 0 0 0 0 0 0 0 0 0 0 0 0 0 0 0 0 0 0 0 0 0 0 0 0 0 0 0 0 0 0 0 0 0
0 0 0 0 0 0 0 0 0 0 0 0 0 0 0 0 0 0 0 0 0 0 0 0 0 0 0 0 0 0 0 0 0 0 0 0 0 0 0 0 0 0 0 0
0 0 0 0 0 0 0 0 0 0 0 0 0 0 0 0 0 0 0 0 0 0 0 0 0 0 0 0 0 0 0 0 0 0 0 0 0 0 0 0 0 0 0 0
0 0 0 0 0 0 0 0 0 0 0 0 0 0 0 0 0 0 0 0 0 0 0 0 0 0 0 0 0 0 0 0 0 0 0 0 0 0 0 0 0 0 0 0
Wind_Speed
1 0 2 3 5 7 7 8 10 9 6 8 12 13 11 9 8 8 8 7 7 5 4 3 2 2 2 3 4 4 4 4 3 4 4 4 3 3 3 3 5 5 5 5
1 2 4 4 5 6 7 9 10 8 6 7 10 12 9 7 8 6 6 6 6 5 3 3 3 2 3 3 3 4 4 4 4 3 4 3 3 3 3 3 4 5 5 5
2 2 3 3 4 5 7 8 8 8 8 7 8 10 8 5 6 5 5 5 5 4 4 3 3 3 3 3 3 3 4 4 4 4 3 3 2 2 2 3 3 4 5 5
2 3 3 3 4 5 7 5 7 7 6 4 5 6 6 6 6 6 6 5 5 4 3 3 3 3 3 2 2 3 4 4 4 4 4 6 5 4 4 3 4 4 5 5
2 4 4 4 4 5 6 6 7 7 6 6 6 7 5 5 7 7 6 6 5 4 3 2 2 2 2 2 2 3 3 3 3 3 4 5 5 3 3 4 5 4 4 5
3 3 4 4 4 4 5 5 4 4 4 6 5 6 5 4 7 7 6 5 5 4 3 2 1 1 1 1 1 2 3 3 3 3 4 5 6 5 5 5 5 4 3 4
3 1 2 2 3 1 4 2 2 3 4 4 3 6 6 3 4 6 5 5 4 4 3 2 1 1 1 2 2 1 2 3 3 3 4 5 5 6 7 6 5 5 4 4
4 3 2 2 3 3 3 3 3 3 3 3 3 6 3 2 3 3 3 3 2 2 2 2 2 2 2 2 2 2 2 2 3 3 4 4 4 4 4 5 5 5 4 4
4 4 3 3 3 3 2 2 2 3 2 3 4 4 4 2 3 3 3 2 1 1 1 2 2 2 2 2 2 2 3 2 2 3 4 4 4 4 4 4 4 4 4 3
3 5 4 3 2 1 3 1 2 3 3 4 4 5 2 4 5 6 5 4 4 2 1 1 1 1 1 1 1 1 2 2 2 3 3 2 3 4 4 4 5 5 4 4
3 4 3 2 2 2 2 2 2 2 3 4 4 1 3 3 4 5 6 6 4 4 2 1 0 0 0 0 0 0 0 1 1 2 2 2 2 3 3 3 4 4 4 5
2 3 4 4 2 2 3 2 3 3 2 3 4 2 4 3 4 5 6 6 4 3 3 2 1 1 1 1 1 0 0 0 1 1 2 2 2 2 3 3 4 4 4 4
2 2 4 2 2 1 2 2 2 2 2 4 5 3 2 4 6 6 7 7 5 4 3 2 2 1 1 1 1 1 0 0 0 1 1 1 2 2 2 2 3 3 4 4
2 3 4 6 5 3 4 4 4 4 4 5 7 9 8 8 8 8 8 7 5 4 4 3 2 2 1 2 2 1 1 1 0 1 1 1 1 2 2 2 2 3 3 4
2 3 5 8 8 6 7 7 5 6 8 8 8 9 10 9 9 8 7 7 6 4 4 4 3 3 2 2 2 2 2 1 1 1 1 1 1 1 1 1 2 3 3 3
1 3 4 5 4 5 6 7 7 7 8 10 10 10 9 8 6 6 6 6 6 6 5 4 4 3 3 3 2 2 2 1 1 1 1 0 0 0 1 1 1 2 2 3
2 2 3 4 3 4 5 6 6 5 5 6 8 8 8 7 7 7 7 6 6 6 6 5 4 3 3 3 3 2 2 2 1 1 0 0 0 0 1 1 2 2 2 3
3 2 2 3 3 5 0 1 2 4 4 5 7 8 7 8 8 6 5 6 6 6 6 5 4 4 3 3 3 3 2 1 1 0 0 0 0 1 1 1 2 2 2 2
4 3 2 2 4 6 3 1 2 4 5 3 6 8 8 7 6 3 4 5 6 6 5 4 4 4 3 3 3 2 2 1 1 1 1 1 1 1 1 1 2 1 2 2
1 2 3 3 4 5 2 2 2 3 5 1 4 6 7 6 4 3 7 7 6 5 4 4 4 3 3 3 3 2 2 1 1 2 2 2 1 1 1 1 1 1 1 2
1 2 4 5 5 5 3 3 2 4 3 4 5 6 5 4 6 6 7 6 5 4 4 3 3 3 3 3 2 2 2 2 3 2 2 2 1 1 1 1 1 1 1 2
4 4 4 4 6 5 1 2 3 4 5 5 6 6 6 6 6 6 6 5 5 4 4 3 3 3 3 3 2 2 3 3 3 2 2 2 2 1 0 0 0 1 1 2
6 5 3 6 5 2 2 3 3 4 5 6 6 6 5 6 6 6 5 5 4 4 4 3 3 3 3 3 3 3 3 3 3 2 2 2 2 1 0 0 1 1 1 1
4 3 4 6 8 6 6 6 6 6 6 6 6 5 5 5 6 6 5 5 4 4 3 3 3 3 3 3 3 3 3 3 2 2 2 2 1 1 1 0 0 1 1 1
4 4 5 8 8 7 6 6 6 6 6 6 5 5 5 5 5 5 4 5 4 4 3 2 2 3 3 3 3 3 3 2 2 2 2 2 1 1 1 1 1 1 1 1
6 7 7 7 5 5 6 5 6 6 6 6 5 5 5 4 5 4 4 4 4 3 3 2 2 2 3 3 3 3 3 2 1 2 2 2 1 1 1 1 1 2 1 1
Wind_Direction
37 230 261 267 259 263 259 265 269 275 286 266 259 264 266 258 246 243 239 236 233 234 238 218 211 196 168 168 165 162 163 168 162 166 167 169 173 167 167 171 174 177 172 171
192 263 283 284 276 260 257 267 277 281 285 273 266 266 266 258 243 241 236 231 233 232 230 221 205 189 182 172 159 167 171 180 181 181 182 183 170 173 166 166 172 177 175 173
276 312 308 278 273 273 265 262 271 283 298 266 270 260 245 239 237 240 244 242 236 229 230 223 204 193 191 183 173 186 183 187 186 170 164 149 143 152 164 172 175 179 178 175
313 310 295 288 279 278 271 272 271 268 275 272 262 268 248 242 236 238 242 244 242 234 221 215 204 196 204 197 182 193 185 187 186 170 179 176 183 188 191 184 182 178 181 178
311 320 308 288 294 276 276 285 269 259 261 271 248 253 263 222 237 239 238 246 241 232 212 218 209 188 197 188 181 196 183 183 185 183 188 194 194 196 185 175 178 177 177 179
297 308 313 300 300 275 283 268 257 237 240 248 241 245 265 222 237 242 237 244 239 230 215 218 205 142 152 150 166 185 183 183 189 195 198 206 197 189 183 187 182 180 175 177
329 321 327 297 295 264 296 273 255 225 218 246 221 242 260 276 263 255 252 248 240 227 212 212 194 174 172 161 164 183 187 185 196 205 208 215 208 198 194 192 189 185 182 187
327 320 347 320 294 286 268 260 273 279 269 287 230 246 270 348 319 291 282 263 240 236 219 213 205 192 188 178 176 180 189 190 195 208 222 223 214 207 204 200 194 194 194 194
316 302 329 316 309 276 236 236 304 289 293 265 240 260 274 338 347 343 324 314 303 273 254 233 206 194 190 186 190 192 190 192 201 212 221 225 216 216 211 201 199 195 191 186
288 284 303 314 262 273 297 283 207 233 267 263 253 258 279 344 340 337 333 326 327 322 312 261 215 201 204 221 208 191 191 198 202 210 219 226 223 221 214 198 195 194 188 182
284 272 291 282 250 274 209 199 239 247 277 280 275 279 25 323 325 323 327 328 325 323 315 291 248 208 194 345 302 184 180 208 219 222 221 223 220 216 207 201 197 193 186 183
313 281 277 274 314 320 269 253 227 243 242 258 281 306 46 352 344 336 334 337 332 333 333 337 12 67 56 30 11 340 190 204 238 240 226 219 210 202 201 200 196 188 184 184
309 276 291 248 172 144 263 279 258 251 255 248 258 271 38 346 346 351 350 348 344 355 358 360 19 33 19 3 349 330 294 215 248 239 225 210 197 196 196 196 187 183 180 178
285 246 258 281 312 311 284 278 258 233 240 249 252 277 303 327 333 340 345 345 345 359 4 2 360 358 352 345 337 329 318 332 287 228 217 214 210 215 200 189 180 181 179 177
276 258 263 277 285 284 281 274 257 237 246 253 270 280 298 318 323 325 332 338 344 351 355 355 350 344 339 340 338 331 334 341 308 253 236 241 227 235 200 173 173 174 179 180
309 271 279 277 275 279 278 277 262 253 254 258 271 279 303 316 319 325 333 336 335 338 338 341 340 341 334 331 324 325 329 324 298 285 298 325 198 215 200 173 164 162 171 176
234 243 273 277 312 286 270 268 244 234 246 260 267 287 315 312 311 315 324 328 327 327 330 331 329 325 318 319 321 318 313 311 287 280 312 72 329 235 224 185 166 170 170 170
214 218 252 285 290 246 309 44 259 238 260 266 278 297 307 309 311 311 320 323 323 327 323 323 327 326 327 329 333 330 320 313 306 308 343 22 288 259 237 200 193 181 172 174
216 210 235 253 265 270 278 279 267 253 268 276 283 296 306 315 299 294 351 334 322 321 316 317 323 326 332 339 335 325 320 333 335 323 314 307 285 256 243 219 220 203 184 180
125 215 237 237 257 261 327 357 314 241 259 326 295 301 312 316 293 328 354 338 331 332 328 327 333 338 344 344 336 333 337 343 330 317 303 299 287 256 242 234 228 230 200 187
177 206 229 239 251 269 326 329 211 228 314 343 302 300 301 287 294 317 322 324 327 333 337 337 338 345 345 343 338 344 353 347 335 328 317 313 304 284 260 250 231 205 178 170
205 203 209 218 230 254 65 145 215 288 329 311 302 301 295 296 302 306 314 322 328 334 338 341 343 345 346 345 341 342 346 340 335 335 335 335 332 329 305 286 257 176 161 168
221 221 224 218 240 319 189 233 281 307 299 301 301 298 292 292 296 306 314 320 321 325 329 334 336 335 342 347 343 337 333 337 339 347 350 345 341 344 343 221 209 181 166 176
224 223 240 256 261 271 263 269 282 286 286 294 295 292 288 286 290 297 304 309 313 316 317 323 325 328 336 343 342 337 333 335 341 344 347 346 344 349 358 324 242 217 209 202
244 201 231 255 276 288 264 265 279 285 291 294 297 291 285 282 284 289 296 303 305 305 307 310 311 318 325 332 338 339 336 341 346 345 345 343 345 343 354 358 342 270 258 263
209 211 222 250 258 259 281 290 278 279 284 289 293 295 292 282 280 286 291 297 297 298 304 305 307 311 316 324 330 334 333 332 336 339 339 337 339 340 341 359 17 21 338 324